FENGYUN 1C DEB, 31024

Orbit data source: Space-Track

FENGYUN 1C DEB, 31024 is space debris in SSO originally from a launch on Mon, 10 May 1999 UTC launched from the Taiyaun Space Center, China (TSC). Fengyun 1C debris stems from the Chinese weather satellite Fengyun-1C, which was intentionally destroyed by a Chinese anti-satellite missile in 2007. This event dramatically increased the amount of space debris, with thousands of trackable fragments posing hazards to satellites and human spaceflight. The Fengyun 1C debris cloud has become a focal point in discussions about space sustainability and the need for international regulations to prevent the creation of new debris.

Loading next visibility...
Identifier
31024, 1999-025BDS
Orbit
SSO
Country
Flag of CNCN / PRC
Related business
Manufacturer
Unknown
Mission
Spacecraft
Bus & Motor
Unknown
Mass
Unknown
Launch date (UTC)
1999-05-10 (27 years ago)
Launch vehicle
Unknown
Launch site
Taiyaun Space Center, China (TSC)
Object type
Payload
Rocket body
Debris
Shape & HBR
Unknown shape, 0.1 m
Radar Cross Section
Small (<0.1 m²)

Expand to show TLE details & history
Last TLE update: 4 days ago

TLE from 4 days ago
0 FENGYUN 1C DEB
1 31024U 99025BDS 26253.04914046  .00000319  00000-0  16300-3 0  9997
2 31024  99.0401 177.7462 0075448  69.9685 290.9594 14.21171428  5554
Epoch: 2026-09-10T01:10Z
TLE epoch observation values (Epoch: 2026-09-10T01:10:45.735Z)
Latitude
-0.00001°
Longitude
170.96321°
Altitude
805.224 km
Speed
7.461 km/s
True Right ascension
11h 50m 59s
True Declination
0° 00' 00"
Sunlit
Object was in daylight at epoch
Visualization orbit readout
Latitude
Unknown
Longitude
Unknown
Altitude
Unknown
Speed
Unknown
Apparent Right ascension
Unknown
Apparent Declination
Unknown
Sunlit
N/A
Visualization observer readout
Local Sidereal Time
23:32:24
Azimuth
Unknown
Elevation
Unknown
Doppler factor
Unknown
Orbital elements
Apogee altitude
872.864 km
Perigee altitude
764.269 km
Semi-major axis
7,196.704 km
Eccentricity
0.00754
Inclination
99.0401°
RAAN
177.7462°
Arg. of periapsis
69.9685°
True anomaly
290.14933°
Mean anomaly
290.9594°
Eccentric anomaly
290.55464°
Mean motion
3.55503 °/min
Orbital period
101.27 mins
BSTAR
0.000163
Loading maneuver chart data...
Computing Atmospheric mass density...

Documentation

Showing up to 5 results
|